When you browse on this site, cookies collect data to enhance your experience and personalize the content and advertising you see.
Visit our Privacy Policy to learn more. By continuing to use the site, you agree to this use of cookies and data.
  • In United Kingdom
  • List of Countries
  • For 7 days
  • Water Temperature
  • Satellite Maps
  • Weather Map
  • Weather Widgets
  • user-avatar
    Login

    Hourly Weather Blagoevgrad

    Today, 19 June, Wednesday

    Time Temperature Precipitation Wind Pressure Humidity
    00:00 +19°C° 0.1 mm 1 mps 720 mmHg 88%
    01:00 +19°C° 0.1 mm 1 mps 720 mmHg 87%
    02:00 +17°C° 0 mm 0 mps 720 mmHg 87%
    03:00 +18°C° 0 mm 1 mps 720 mmHg 87%
    04:00 +18°C° 0 mm 1 mps 720 mmHg 87%
    05:00 +18°C° 0 mm 1 mps 719 mmHg 87%
    06:00 +19°C° 0 mm 1 mps 719 mmHg 84%
    07:00 +21°C° 0 mm 1 mps 720 mmHg 82%
    08:00 +23°C° 0 mm 1 mps 720 mmHg 77%
    09:00 +24°C° 0.7 mm 1 mps 720 mmHg 74%
    10:00 +25°C° 0.7 mm 1 mps 720 mmHg 72%
    11:00 +26°C° 0.7 mm 1 mps 720 mmHg 70%
    12:00 +27°C° 1.5 mm 1 mps 720 mmHg 68%
    13:00 +27°C° 1.5 mm 1 mps 720 mmHg 66%
    14:00 +28°C° 1.5 mm 1 mps 719 mmHg 64%
    15:00 +27°C° 1.4 mm 1 mps 719 mmHg 66%
    16:00 +27°C° 1.4 mm 1 mps 719 mmHg 69%
    17:00 +26°C° 1.4 mm 1 mps 718 mmHg 72%
    18:00 +25°C° 0.7 mm 1 mps 718 mmHg 75%
    19:00 +24°C° 0.7 mm 1 mps 718 mmHg 78%
    20:00 +22°C° 0.7 mm 1 mps 718 mmHg 81%
    21:00 +22°C° 0.3 mm 1 mps 718 mmHg 82%
    22:00 +21°C° 0.3 mm 1 mps 718 mmHg 83%
    23:00 +20°C° 0.3 mm 1 mps 719 mmHg 85%

    Tomorrow, 20 June, Thursday

    Time Temperature Precipitation Wind Pressure Humidity
    00:00 +20°C° 0.1 mm 1 mps 719 mmHg 85%
    01:00 +19°C° 0.1 mm 1 mps 718 mmHg 85%
    02:00 +19°C° 0.1 mm 1 mps 718 mmHg 86%
    03:00 +18°C° 0 mm 1 mps 718 mmHg 86%
    04:00 +16°C° 0 mm 0 mps 718 mmHg 86%
    05:00 +16°C° 0 mm 0 mps 718 mmHg 86%
    06:00 +18°C° 0 mm 0 mps 718 mmHg 83%
    07:00 +19°C° 0 mm 0 mps 719 mmHg 79%
    08:00 +21°C° 0 mm 0 mps 719 mmHg 75%
    09:00 +24°C° 0.3 mm 1 mps 719 mmHg 70%
    10:00 +26°C° 0.3 mm 1 mps 719 mmHg 66%
    11:00 +27°C° 0.3 mm 1 mps 719 mmHg 62%
    12:00 +27°C° 0.5 mm 1 mps 719 mmHg 61%
    13:00 +27°C° 0.5 mm 1 mps 719 mmHg 60%
    14:00 +28°C° 0.5 mm 1 mps 719 mmHg 60%
    15:00 +27°C° 0.4 mm 1 mps 718 mmHg 65%
    16:00 +26°C° 0.4 mm 1 mps 718 mmHg 70%
    17:00 +25°C° 0.4 mm 1 mps 718 mmHg 75%
    18:00 +22°C° 0.1 mm 0 mps 718 mmHg 77%
    19:00 +21°C° 0.1 mm 0 mps 718 mmHg 79%
    20:00 +19°C° 0.1 mm 0 mps 718 mmHg 82%
    21:00 +19°C° 0 mm 0 mps 718 mmHg 82%
    22:00 +20°C° 0 mm 1 mps 719 mmHg 83%
    23:00 +20°C° 0 mm 1 mps 719 mmHg 83%

    Day after tomorrow, 21 June, Friday

    Time Temperature Precipitation Wind Pressure Humidity
    00:00 +19°C° 0 mm 1 mps 719 mmHg 84%
    01:00 +19°C° 0 mm 1 mps 719 mmHg 84%
    02:00 +18°C° 0 mm 1 mps 719 mmHg 85%
    03:00 +18°C° 0 mm 1 mps 719 mmHg 85%
    04:00 +18°C° 0 mm 1 mps 719 mmHg 85%
    05:00 +18°C° 0 mm 1 mps 719 mmHg 86%
    06:00 +20°C° 0 mm 1 mps 719 mmHg 82%
    07:00 +21°C° 0 mm 1 mps 719 mmHg 78%
    08:00 +23°C° 0 mm 1 mps 720 mmHg 74%
    09:00 +25°C° 0 mm 1 mps 720 mmHg 69%
    10:00 +26°C° 0 mm 1 mps 720 mmHg 63%
    11:00 +28°C° 0 mm 2 mps 720 mmHg 57%
    12:00 +28°C° 0.3 mm 2 mps 720 mmHg 57%
    13:00 +28°C° 0.3 mm 1 mps 720 mmHg 56%
    14:00 +29°C° 0.3 mm 1 mps 720 mmHg 55%
    15:00 +29°C° 0.7 mm 1 mps 719 mmHg 57%
    16:00 +28°C° 0.7 mm 1 mps 719 mmHg 58%
    17:00 +28°C° 0.7 mm 1 mps 719 mmHg 60%
    18:00 +27°C° 0.2 mm 1 mps 719 mmHg 67%
    19:00 +25°C° 0.2 mm 1 mps 719 mmHg 73%
    20:00 +23°C° 0.2 mm 1 mps 719 mmHg 79%
    21:00 +22°C° 0 mm 1 mps 719 mmHg 81%
    22:00 +21°C° 0 mm 1 mps 720 mmHg 82%
    23:00 +20°C° 0 mm 1 mps 720 mmHg 83%

    22 June, Saturday

    Time Temperature Precipitation Wind Pressure Humidity
    00:00 +20°C° 0 mm 1 mps 720 mmHg 84%
    01:00 +20°C° 0 mm 1 mps 720 mmHg 84%
    02:00 +19°C° 0 mm 1 mps 720 mmHg 85%
    03:00 +19°C° 0 mm 1 mps 720 mmHg 85%
    04:00 +19°C° 0 mm 1 mps 720 mmHg 85%
    05:00 +19°C° 0 mm 1 mps 720 mmHg 86%
    06:00 +20°C° 0 mm 1 mps 720 mmHg 82%
    07:00 +22°C° 0 mm 1 mps 721 mmHg 78%
    08:00 +24°C° 0 mm 1 mps 721 mmHg 74%
    09:00 +25°C° 0.1 mm 1 mps 721 mmHg 70%
    10:00 +27°C° 0.1 mm 1 mps 721 mmHg 66%
    11:00 +28°C° 0.1 mm 1 mps 721 mmHg 62%
    12:00 +29°C° 0.3 mm 1 mps 721 mmHg 59%
    13:00 +29°C° 0.3 mm 1 mps 721 mmHg 57%
    14:00 +30°C° 0.3 mm 1 mps 721 mmHg 55%
    15:00 +30°C° 0.1 mm 1 mps 721 mmHg 55%
    16:00 +30°C° 0.1 mm 1 mps 720 mmHg 55%
    17:00 +30°C° 0.1 mm 1 mps 720 mmHg 56%
    18:00 +28°C° 0 mm 1 mps 720 mmHg 63%
    19:00 +26°C° 0 mm 1 mps 720 mmHg 70%
    20:00 +22°C° 0 mm 0 mps 720 mmHg 77%
    21:00 +23°C° 0 mm 1 mps 720 mmHg 77%
    22:00 +23°C° 0 mm 1 mps 720 mmHg 77%
    23:00 +22°C° 0 mm 1 mps 720 mmHg 78%

    23 June, Sunday

    Time Temperature Precipitation Wind Pressure Humidity
    00:00 +22°C° 0 mm 1 mps 720 mmHg 78%
    01:00 +22°C° 0 mm 1 mps 720 mmHg 78%
    02:00 +21°C° 0 mm 1 mps 719 mmHg 78%
    03:00 +21°C° 0 mm 1 mps 720 mmHg 73%
    04:00 +21°C° 0 mm 1 mps 720 mmHg 72%
    05:00 +20°C° 0 mm 1 mps 720 mmHg 72%
    06:00 +20°C° 0 mm 0 mps 720 mmHg 69%
    07:00 +22°C° 0 mm 0 mps 721 mmHg 66%
    08:00 +24°C° 0 mm 0 mps 721 mmHg 62%
    09:00 +28°C° 0 mm 1 mps 721 mmHg 59%
    10:00 +29°C° 0 mm 1 mps 721 mmHg 56%
    11:00 +31°C° 0 mm 1 mps 721 mmHg 53%
    12:00 +31°C° 0.1 mm 1 mps 721 mmHg 51%
    13:00 +32°C° 0.1 mm 2 mps 721 mmHg 50%
    14:00 +32°C° 0.1 mm 2 mps 721 mmHg 48%
    15:00 +32°C° 0.2 mm 1 mps 721 mmHg 50%
    16:00 +32°C° 0.2 mm 1 mps 720 mmHg 52%
    17:00 +31°C° 0.2 mm 1 mps 720 mmHg 54%
    18:00 +29°C° 0.3 mm 1 mps 720 mmHg 61%
    19:00 +27°C° 0.3 mm 1 mps 720 mmHg 67%
    20:00 +25°C° 0.3 mm 1 mps 720 mmHg 74%
    21:00 +24°C° 0.5 mm 1 mps 721 mmHg 77%
    22:00 +23°C° 0.5 mm 1 mps 721 mmHg 80%
    23:00 +22°C° 0.5 mm 1 mps 721 mmHg 83%

    24 June, Monday

    Time Temperature Precipitation Wind Pressure Humidity
    00:00 +22°C° 0 mm 1 mps 721 mmHg 84%
    01:00 +22°C° 0 mm 1 mps 721 mmHg 85%
    02:00 +21°C° 0 mm 1 mps 721 mmHg 86%
    03:00 +21°C° 0 mm 1 mps 721 mmHg 86%
    04:00 +21°C° 0 mm 1 mps 721 mmHg 87%
    05:00 +20°C° 0 mm 1 mps 722 mmHg 87%
    06:00 +22°C° 0 mm 1 mps 722 mmHg 83%
    07:00 +24°C° 0 mm 1 mps 722 mmHg 79%
    08:00 +25°C° 0 mm 1 mps 723 mmHg 74%
    09:00 +27°C° 0 mm 2 mps 723 mmHg 68%
    10:00 +28°C° 0 mm 3 mps 723 mmHg 61%
    11:00 +29°C° 0 mm 3 mps 723 mmHg 54%
    12:00 +29°C° 0.1 mm 3 mps 723 mmHg 54%
    13:00 +30°C° 0.1 mm 3 mps 723 mmHg 54%
    14:00 +30°C° 0.1 mm 4 mps 723 mmHg 54%
    15:00 +30°C° 0.2 mm 4 mps 723 mmHg 56%
    16:00 +29°C° 0.2 mm 3 mps 722 mmHg 58%
    17:00 +29°C° 0.2 mm 3 mps 722 mmHg 61%
    18:00 +27°C° 0.1 mm 3 mps 722 mmHg 68%
    19:00 +25°C° 0.1 mm 3 mps 722 mmHg 75%
    20:00 +23°C° 0.1 mm 2 mps 722 mmHg 82%
    21:00 +21°C° 0 mm 2 mps 723 mmHg 84%
    22:00 +20°C° 0 mm 2 mps 723 mmHg 86%
    23:00 +19°C° 0 mm 2 mps 723 mmHg 88%
    Show more